Location: Fontevrault
(47.1823°N, 0.0493°E)
Time: 02:35:20
(UTC+00:00)

Meteor 1-21 Rocket - Pass Details

Date: 28 October 2021
Orbit: 834 x 907 km, 81.2° (Epoch: 07 December)

Event Time Altitude Azimuth Distance (km) Brightness Sun altitude
Rises 18:45:28 0° 331° (NNW) 3,531 7.9 -20.3°
Reaches altitude 10° 18:49:24 10° 305° (NW) 2,592 7.5 -20.9°
Maximum altitude 18:51:54 13° 280° (W) 2,385 7.6 -21.3°
Drops below altitude 10° 18:54:24 10° 255° (WSW) 2,590 7.7 -21.8°
Sets 18:58:21 0° 229° (SW) 3,524 8.1 -22.4°
